Date String (YYYY-MM-DD hh:mm:ss) UTC,Instrument flags,Ambient pressure (hPa),Sample flow (lpm),Bypass flow (lpm),Sample temperature (°C),Ambient temperature (°C),ASC tube jacket temperature (°C),LED temperature (°C),Box temperature (°C),Sample RH (%),Span deviation,Mass concentration (μg/m³),Mass concentration (μg/m³),Mass concentration (μg/m³)
DateTimeUTC,F1_M11,P_M11,Q1_M11,Q2_M11,T1_M11,T2_M11,T3_M11,T4_M11,T5_M11,U1_M11,ZSPAN_M11,X0_M11,X2_M11,X1_M11
2022-08-16 07:00:00,,0831.0,4.99,0.00,32.9,29.2,00.0,40.9,33.0,34.6,0000.0,0007.72,0004.26,0003.91
2022-08-16 07:01:00,,0831.0,5.01,0.00,32.8,29.3,00.0,40.9,32.9,34.6,0000.0,0007.74,0004.26,0003.89
2022-08-16 07:02:00,,0831.1,4.99,0.00,32.8,29.3,00.0,40.9,32.9,34.8,0000.0,0007.49,0004.27,0003.89
2022-08-16 07:03:00,,0831.0,5.01,0.00,32.7,29.4,00.0,40.9,33.0,35.0,0000.0,0007.56,0004.30,0003.90
2022-08-16 07:04:00,,0831.0,5.00,0.00,32.8,29.4,00.0,40.9,33.0,35.1,0000.0,0007.60,0004.32,0003.93
2022-08-16 07:05:00,,0831.0,4.99,0.00,32.9,29.4,00.0,40.9,33.1,34.3,0000.0,0007.59,0004.31,0003.90
2022-08-16 07:06:00,,0831.0,5.01,0.00,33.0,29.4,00.0,40.9,33.1,33.4,0000.0,0007.44,0004.25,0003.86
2022-08-16 07:07:00,,0831.0,4.99,0.00,33.0,29.0,00.0,40.8,33.0,33.5,0000.0,0007.32,0004.23,0003.87
2022-08-16 07:08:00,,0831.0,5.00,0.00,32.9,28.4,00.0,40.8,32.8,33.8,0000.0,0007.40,0004.29,0003.92
2022-08-16 07:09:00,,0830.9,5.01,0.00,32.8,28.1,00.0,40.7,32.7,34.2,0000.0,0007.74,0004.35,0003.98
2022-08-16 07:10:00,,0830.9,4.99,0.00,32.6,28.1,00.0,40.7,32.6,35.0,0000.0,0007.97,0004.41,0004.02
2022-08-16 07:11:00,,0830.9,5.00,0.00,32.6,28.1,00.0,40.7,32.6,34.3,0000.0,0007.91,0004.41,0004.00
2022-08-16 07:12:00,,0830.9,5.00,0.00,32.6,28.2,00.0,40.7,32.7,33.6,0000.0,0007.63,0004.36,0003.97
2022-08-16 07:13:00,,0830.9,5.01,0.00,32.5,28.4,00.0,40.7,32.7,33.4,0000.0,0007.60,0004.31,0003.91
2022-08-16 07:14:00,,0830.9,4.98,0.00,32.5,28.5,00.0,40.6,32.6,33.5,0000.0,0007.54,0004.24,0003.84
2022-08-16 07:15:00,,0830.9,5.01,0.00,32.4,28.6,00.0,40.6,32.6,33.4,0000.0,0007.41,0004.15,0003.75
2022-08-16 07:16:00,,0830.9,4.99,0.00,32.4,28.7,00.0,40.6,32.7,33.5,0000.0,0007.23,0004.07,0003.70
2022-08-16 07:17:00,,0830.9,5.00,0.00,32.3,28.8,00.0,40.6,32.7,33.7,0000.0,0007.14,0004.04,0003.68
2022-08-16 07:18:00,,0830.9,4.99,0.00,32.2,28.9,00.0,40.6,32.6,33.8,0000.0,0007.11,0004.01,0003.65
2022-08-16 07:19:00,,0830.9,5.00,0.00,32.2,28.9,00.0,40.5,32.7,33.9,0000.0,0007.20,0003.97,0003.59
2022-08-16 07:20:00,,0830.9,5.01,0.00,32.1,29.0,00.0,40.5,32.6,33.8,0000.0,0006.67,0003.88,0003.49
2022-08-16 07:21:00,,0830.9,4.99,0.00,32.1,29.1,00.0,40.5,32.7,33.8,0000.0,0006.22,0003.76,0003.38
2022-08-16 07:22:00,,0830.9,5.01,0.00,32.0,29.1,00.0,40.5,32.7,33.8,0000.0,0005.85,0003.66,0003.31
2022-08-16 07:23:00,,0830.9,5.00,0.00,32.0,29.2,00.0,40.5,32.7,33.9,0000.0,0005.78,0003.64,0003.30
2022-08-16 07:24:00,,0830.9,5.01,0.00,31.9,29.2,00.0,40.4,32.7,34.0,0000.0,0005.69,0003.61,0003.29
2022-08-16 07:25:00,,0830.8,4.99,0.00,31.9,29.2,00.0,40.4,32.7,34.1,0000.0,0005.65,0003.61,0003.29
2022-08-16 07:26:00,,0830.9,4.99,0.00,31.8,29.3,00.0,40.4,32.7,34.2,0000.0,0005.72,0003.62,0003.30
2022-08-16 07:27:00,,0830.8,5.02,0.00,31.8,29.3,00.0,40.4,32.7,34.2,0000.0,0005.85,0003.64,0003.31
2022-08-16 07:28:00,,0830.8,5.00,0.00,31.8,29.3,00.0,40.4,32.7,34.4,0000.0,0005.97,0003.67,0003.33
2022-08-16 07:29:00,,0830.7,5.00,0.00,31.7,29.2,00.0,40.3,32.7,34.4,0000.0,0006.05,0003.68,0003.34
2022-08-16 07:30:00,,0830.8,5.00,0.00,31.7,28.5,00.0,40.2,32.4,34.4,0000.0,0005.87,0003.69,0003.36
2022-08-16 07:31:00,,0830.7,5.01,0.00,31.6,28.0,00.0,40.1,32.3,34.7,0000.0,0005.74,0003.69,0003.39
2022-08-16 07:32:00,,0830.6,5.01,0.00,31.5,27.9,00.0,40.1,32.2,35.7,0000.0,0005.72,0003.72,0003.43
2022-08-16 07:33:00,,0830.6,4.99,0.00,31.6,28.0,00.0,40.1,32.4,35.5,0000.0,0006.03,0003.78,0003.48
2022-08-16 07:34:00,,0830.6,5.00,0.00,31.9,28.0,00.0,40.0,32.5,35.0,0000.0,0007.68,0003.84,0003.49
2022-08-16 07:35:00,,0830.6,5.01,0.00,32.1,28.2,00.0,40.0,32.6,34.6,0000.0,0007.94,0003.85,0003.51
2022-08-16 07:36:00,,0830.6,4.98,0.00,32.2,28.3,00.0,40.0,32.6,34.6,0000.0,0007.97,0003.87,0003.51
2022-08-16 07:37:00,,0830.6,5.01,0.00,32.2,28.4,00.0,40.0,32.5,34.7,0000.0,0007.94,0003.87,0003.51
2022-08-16 07:38:00,,0830.6,5.00,0.00,32.2,28.5,00.0,40.0,32.5,34.6,0000.0,0007.88,0003.85,0003.50
2022-08-16 07:39:00,,0830.6,5.00,0.00,32.2,28.6,00.0,40.1,32.5,34.4,0000.0,0007.82,0003.81,0003.47
2022-08-16 07:40:00,,0830.6,5.00,0.00,32.2,28.7,00.0,40.1,32.5,34.2,0000.0,0007.79,0003.81,0003.45
2022-08-16 07:41:00,,0830.6,5.01,0.00,32.1,28.8,00.0,40.2,32.5,34.1,0000.0,0008.24,0003.78,0003.44
2022-08-16 07:42:00,,0830.6,5.00,0.00,32.1,28.9,00.0,40.2,32.5,34.1,0000.0,0008.48,0003.77,0003.43
2022-08-16 07:43:00,,0830.6,5.00,0.00,32.0,29.0,00.0,40.2,32.6,34.1,0000.0,0008.42,0003.74,0003.38
2022-08-16 07:44:00,,0830.6,5.00,0.00,32.0,29.0,00.0,40.2,32.6,34.0,0000.0,0008.38,0003.71,0003.35
2022-08-16 07:45:00,,0830.6,5.00,0.00,32.0,29.1,00.0,40.2,32.6,34.1,0000.0,0007.19,0003.66,0003.33
2022-08-16 07:46:00,,0830.5,5.00,0.00,31.9,29.1,00.0,40.2,32.6,34.1,0000.0,0006.60,0003.64,0003.33
2022-08-16 07:47:00,,0830.6,4.99,0.00,31.9,29.2,00.0,40.2,32.6,34.3,0000.0,0006.46,0003.61,0003.31
2022-08-16 07:48:00,,0830.5,5.00,0.00,31.8,29.2,00.0,40.2,32.6,34.3,0000.0,0006.40,0003.59,0003.30
2022-08-16 07:49:00,,0830.4,5.00,0.00,31.8,29.2,00.0,40.2,32.6,34.2,0000.0,0006.40,0003.58,0003.30
2022-08-16 07:50:00,,0830.5,5.00,0.00,31.8,29.3,00.0,40.2,32.6,33.8,0000.0,0006.44,0003.60,0003.31
2022-08-16 07:51:00,,0830.5,5.01,0.00,31.7,29.3,00.0,40.2,32.6,33.4,0000.0,0006.39,0003.59,0003.31
2022-08-16 07:52:00,,0830.4,5.00,0.00,31.7,29.3,00.0,40.2,32.7,33.0,0000.0,0005.61,0003.58,0003.32
2022-08-16 07:53:00,,0830.4,4.99,0.00,31.7,29.2,00.0,40.2,32.6,32.9,0000.0,0005.00,0003.59,0003.33
2022-08-16 07:54:00,,0830.4,5.00,0.00,31.6,28.4,00.0,40.1,32.4,33.2,0000.0,0004.95,0003.59,0003.34
2022-08-16 07:55:00,,0830.4,5.01,0.00,31.5,27.7,00.0,40.0,32.1,32.6,0000.0,0004.86,0003.57,0003.33
2022-08-16 07:56:00,,0830.4,4.99,0.00,31.3,27.4,00.0,39.9,32.0,32.1,0000.0,0004.84,0003.55,0003.32
2022-08-16 07:57:00,,0830.4,4.99,0.00,31.1,27.4,00.0,39.9,32.0,32.7,0000.0,0004.85,0003.56,0003.31
2022-08-16 07:58:00,,0830.4,5.00,0.00,31.0,27.5,00.0,39.8,32.0,33.2,0000.0,0004.94,0003.56,0003.30
2022-08-16 07:59:00,,0830.3,5.01,0.00,31.0,27.7,00.0,39.8,32.0,33.6,0000.0,0004.98,0003.55,0003.29
